When you browse on this site, cookies collect data to enhance your experience and personalize the content and advertising you see.
Visit our Privacy Policy to learn more. By continuing to use the site, you agree to this use of cookies and data.
EN

Hourly Weather Molepolole

Today, 28 September, Monday

Time Temperature Precipitation Wind Pressure Humidity
00:00 +14°C° 0 mm 4 mps 662 mmHg 15%
01:00 +14°C° 0 mm 4 mps 662 mmHg 16%
02:00 +13°C° 0 mm 4 mps 662 mmHg 17%
03:00 +11°C° 0 mm 3 mps 662 mmHg 19%
04:00 +10°C° 0 mm 2 mps 661 mmHg 21%
05:00 +9°C° 0 mm 2 mps 661 mmHg 22%
06:00 +13°C° 0 mm 2 mps 662 mmHg 19%
07:00 +15°C° 0 mm 2 mps 664 mmHg 16%
08:00 +18°C° 0 mm 3 mps 665 mmHg 13%
09:00 +21°C° 0 mm 2 mps 666 mmHg 11%
10:00 +25°C° 0 mm 2 mps 666 mmHg 9%
11:00 +27°C° 0 mm 2 mps 666 mmHg 7%
12:00 +29°C° 0 mm 2 mps 666 mmHg 6%
13:00 +30°C° 0 mm 1 mps 665 mmHg 5%
14:00 +32°C° 0 mm 1 mps 665 mmHg 5%
15:00 +32°C° 0 mm 2 mps 665 mmHg 5%
16:00 +31°C° 0 mm 3 mps 664 mmHg 5%
17:00 +31°C° 0 mm 3 mps 664 mmHg 5%
18:00 +28°C° 0 mm 4 mps 664 mmHg 5%
19:00 +23°C° 0 mm 4 mps 663 mmHg 6%
20:00 +20°C° 0 mm 4 mps 663 mmHg 6%
21:00 +19°C° 0 mm 4 mps 663 mmHg 7%
22:00 +17°C° 0 mm 5 mps 664 mmHg 7%
23:00 +16°C° 0 mm 5 mps 664 mmHg 8%

Tomorrow, 29 September, Tuesday

Time Temperature Precipitation Wind Pressure Humidity
00:00 +15°C° 0 mm 4 mps 664 mmHg 9%
01:00 +13°C° 0 mm 3 mps 663 mmHg 9%
02:00 +13°C° 0 mm 2 mps 663 mmHg 10%
03:00 +12°C° 0 mm 2 mps 663 mmHg 11%
04:00 +10°C° 0 mm 2 mps 663 mmHg 11%
05:00 +10°C° 0 mm 2 mps 663 mmHg 11%
06:00 +13°C° 0 mm 2 mps 664 mmHg 11%
07:00 +16°C° 0 mm 2 mps 665 mmHg 10%
08:00 +18°C° 0 mm 2 mps 666 mmHg 10%
09:00 +21°C° 0 mm 2 mps 666 mmHg 12%
10:00 +26°C° 0 mm 1 mps 667 mmHg 14%
11:00 +29°C° 0 mm 1 mps 667 mmHg 16%
12:00 +30°C° 0 mm 1 mps 667 mmHg 14%
13:00 +31°C° 0 mm 1 mps 666 mmHg 11%
14:00 +33°C° 0 mm 1 mps 665 mmHg 8%
15:00 +34°C° 0 mm 2 mps 665 mmHg 7%
16:00 +33°C° 0 mm 3 mps 665 mmHg 6%
17:00 +33°C° 0 mm 4 mps 664 mmHg 5%
18:00 +29°C° 0 mm 4 mps 664 mmHg 6%
19:00 +25°C° 0 mm 4 mps 664 mmHg 6%
20:00 +21°C° 0 mm 4 mps 663 mmHg 7%
21:00 +19°C° 0 mm 3 mps 663 mmHg 13%
22:00 +17°C° 0 mm 2 mps 663 mmHg 20%
23:00 +15°C° 0 mm 1 mps 663 mmHg 26%

Day after tomorrow, 30 September, Wednesday

Time Temperature Precipitation Wind Pressure Humidity
00:00 +15°C° 0 mm 1 mps 663 mmHg 34%
01:00 +15°C° 0 mm 1 mps 663 mmHg 41%
02:00 +14°C° 0 mm 2 mps 663 mmHg 49%
03:00 +14°C° 0 mm 2 mps 663 mmHg 63%
04:00 +13°C° 0 mm 3 mps 663 mmHg 77%
05:00 +14°C° 0 mm 4 mps 663 mmHg 91%
06:00 +15°C° 0 mm 5 mps 663 mmHg 86%
07:00 +17°C° 0 mm 6 mps 663 mmHg 81%
08:00 +18°C° 0 mm 7 mps 664 mmHg 75%
09:00 +22°C° 0 mm 7 mps 664 mmHg 64%
10:00 +26°C° 0 mm 7 mps 664 mmHg 53%
11:00 +28°C° 0 mm 7 mps 665 mmHg 41%
12:00 +30°C° 0 mm 7 mps 664 mmHg 36%
13:00 +33°C° 0 mm 6 mps 663 mmHg 32%
14:00 +34°C° 0 mm 6 mps 662 mmHg 27%
15:00 +32°C° 0.2 mm 6 mps 662 mmHg 33%
16:00 +29°C° 0.2 mm 6 mps 661 mmHg 40%
17:00 +27°C° 0.2 mm 5 mps 660 mmHg 47%
18:00 +25°C° 0.3 mm 5 mps 660 mmHg 56%
19:00 +22°C° 0.3 mm 4 mps 660 mmHg 65%
20:00 +20°C° 0.3 mm 3 mps 660 mmHg 74%
21:00 +20°C° 0.1 mm 5 mps 660 mmHg 73%
22:00 +20°C° 0.1 mm 7 mps 660 mmHg 72%
23:00 +21°C° 0.1 mm 9 mps 660 mmHg 72%

1 October, Thursday

Time Temperature Precipitation Wind Pressure Humidity
00:00 +20°C° 0 mm 7 mps 659 mmHg 74%
01:00 +20°C° 0 mm 5 mps 658 mmHg 77%
02:00 +19°C° 0 mm 4 mps 658 mmHg 80%
03:00 +19°C° 0.1 mm 3 mps 658 mmHg 80%
04:00 +19°C° 0.1 mm 3 mps 658 mmHg 81%
05:00 +19°C° 0.1 mm 3 mps 658 mmHg 81%
06:00 +20°C° 0 mm 3 mps 659 mmHg 73%
07:00 +21°C° 0 mm 4 mps 660 mmHg 66%
08:00 +23°C° 0 mm 4 mps 661 mmHg 59%
09:00 +26°C° 0 mm 5 mps 661 mmHg 48%
10:00 +28°C° 0 mm 6 mps 661 mmHg 38%
11:00 +30°C° 0 mm 7 mps 661 mmHg 28%
12:00 +31°C° 0 mm 8 mps 661 mmHg 22%
13:00 +32°C° 0 mm 8 mps 661 mmHg 15%
14:00 +32°C° 0 mm 8 mps 661 mmHg 8%
15:00 +31°C° 0 mm 8 mps 661 mmHg 8%
16:00 +29°C° 0 mm 8 mps 661 mmHg 8%
17:00 +28°C° 0 mm 8 mps 661 mmHg 9%
18:00 +24°C° 0 mm 7 mps 661 mmHg 11%
19:00 +21°C° 0 mm 6 mps 661 mmHg 14%
20:00 +17°C° 0 mm 6 mps 662 mmHg 16%
21:00 +16°C° 0 mm 6 mps 662 mmHg 19%
22:00 +14°C° 0 mm 6 mps 662 mmHg 22%
23:00 +13°C° 0 mm 6 mps 663 mmHg 24%

2 October, Friday

Time Temperature Precipitation Wind Pressure Humidity
00:00 +11°C° 0 mm 6 mps 662 mmHg 31%
01:00 +10°C° 0 mm 6 mps 662 mmHg 37%
02:00 +9°C° 0 mm 6 mps 662 mmHg 44%
03:00 +8°C° 0 mm 6 mps 662 mmHg 46%
04:00 +8°C° 0 mm 5 mps 663 mmHg 47%
05:00 +7°C° 0 mm 5 mps 663 mmHg 49%
06:00 +8°C° 0 mm 4 mps 664 mmHg 43%
07:00 +11°C° 0 mm 4 mps 664 mmHg 38%
08:00 +12°C° 0 mm 3 mps 665 mmHg 32%
09:00 +16°C° 0 mm 2 mps 666 mmHg 26%
10:00 +20°C° 0 mm 1 mps 666 mmHg 21%
11:00 +21°C° 0 mm 0 mps 666 mmHg 15%
12:00 +24°C° 0 mm 1 mps 666 mmHg 13%
13:00 +26°C° 0 mm 1 mps 666 mmHg 11%
14:00 +27°C° 0 mm 1 mps 665 mmHg 9%
15:00 +28°C° 0 mm 2 mps 665 mmHg 9%
16:00 +28°C° 0 mm 2 mps 665 mmHg 8%
17:00 +28°C° 0 mm 2 mps 665 mmHg 7%
18:00 +25°C° 0 mm 3 mps 665 mmHg 20%
19:00 +21°C° 0 mm 3 mps 665 mmHg 32%
20:00 +18°C° 0 mm 4 mps 665 mmHg 44%
21:00 +16°C° 0 mm 5 mps 665 mmHg 51%
22:00 +16°C° 0 mm 6 mps 666 mmHg 59%
23:00 +15°C° 0 mm 6 mps 667 mmHg 66%

3 October, Saturday

Time Temperature Precipitation Wind Pressure Humidity
00:00 +14°C° 0 mm 7 mps 667 mmHg 67%
01:00 +14°C° 0 mm 7 mps 667 mmHg 68%
02:00 +12°C° 0 mm 7 mps 667 mmHg 69%
03:00 +12°C° 0 mm 7 mps 667 mmHg 69%
04:00 +11°C° 0 mm 7 mps 667 mmHg 69%
05:00 +11°C° 0 mm 8 mps 667 mmHg 69%
06:00 +11°C° 0 mm 8 mps 667 mmHg 67%
07:00 +11°C° 0 mm 8 mps 668 mmHg 66%
08:00 +11°C° 0 mm 7 mps 668 mmHg 64%
09:00 +12°C° 0 mm 8 mps 669 mmHg 58%
10:00 +15°C° 0 mm 8 mps 669 mmHg 52%
11:00 +17°C° 0 mm 8 mps 670 mmHg 46%
12:00 +18°C° 0 mm 8 mps 669 mmHg 43%
13:00 +20°C° 0 mm 8 mps 669 mmHg 40%
14:00 +21°C° 0 mm 8 mps 669 mmHg 37%
15:00 +21°C° 0 mm 7 mps 668 mmHg 38%
16:00 +20°C° 0 mm 7 mps 668 mmHg 39%
17:00 +20°C° 0 mm 6 mps 668 mmHg 40%
18:00 +17°C° 0 mm 6 mps 668 mmHg 45%
19:00 +15°C° 0 mm 6 mps 668 mmHg 51%
20:00 +14°C° 0 mm 5 mps 668 mmHg 56%
21:00 +13°C° 0 mm 5 mps 669 mmHg 58%
22:00 +12°C° 0 mm 5 mps 669 mmHg 61%
23:00 +12°C° 0 mm 5 mps 669 mmHg 63%
Show more